Year,Month,Day,Hour,Minute,Value (Times are PST for temperature in C)
2018,08,21,00,00,16.40
2018,08,21,00,01,16.40
2018,08,21,00,02,16.40
2018,08,21,00,03,16.40
2018,08,21,00,04,16.40
2018,08,21,00,05,16.30
2018,08,21,00,06,16.30
2018,08,21,00,07,16.30
2018,08,21,00,08,16.30
2018,08,21,00,09,16.30
2018,08,21,00,10,16.30
2018,08,21,00,11,16.30
2018,08,21,00,12,16.30
2018,08,21,00,13,16.30
2018,08,21,00,14,16.30
2018,08,21,00,15,16.30
2018,08,21,00,16,16.30
2018,08,21,00,17,16.30
2018,08,21,00,18,16.30
2018,08,21,00,19,16.30
2018,08,21,00,20,16.30
2018,08,21,00,21,16.30
2018,08,21,00,22,16.20
2018,08,21,00,23,16.20
2018,08,21,00,24,16.20
2018,08,21,00,25,16.20
2018,08,21,00,26,16.10
2018,08,21,00,27,16.10
2018,08,21,00,28,16.10
2018,08,21,00,29,16.10
2018,08,21,00,30,16.20
2018,08,21,00,31,16.20
2018,08,21,00,32,16.30
2018,08,21,00,33,16.30
2018,08,21,00,34,16.30
2018,08,21,00,35,16.40
2018,08,21,00,36,16.40
2018,08,21,00,37,16.40
2018,08,21,00,38,16.30
2018,08,21,00,39,16.30
2018,08,21,00,40,16.30
2018,08,21,00,41,16.20
2018,08,21,00,42,16.20
2018,08,21,00,43,16.10
2018,08,21,00,44,16.10
2018,08,21,00,45,16.00
2018,08,21,00,46,15.90
2018,08,21,00,47,15.80
2018,08,21,00,48,15.80
2018,08,21,00,49,15.80
2018,08,21,00,50,15.80
2018,08,21,00,51,15.80
2018,08,21,00,52,15.70
2018,08,21,00,53,15.70
2018,08,21,00,54,15.60
2018,08,21,00,55,15.60
2018,08,21,00,56,15.50
2018,08,21,00,57,15.50
2018,08,21,00,58,15.50
2018,08,21,00,59,15.40
2018,08,21,01,00,15.40
2018,08,21,01,01,15.40
2018,08,21,01,02,15.30
2018,08,21,01,03,15.30
2018,08,21,01,04,15.30
2018,08,21,01,05,15.30
2018,08,21,01,06,15.30
2018,08,21,01,07,15.30
2018,08,21,01,08,15.30
2018,08,21,01,09,15.30
2018,08,21,01,10,15.30
2018,08,21,01,11,15.30
2018,08,21,01,12,15.30
2018,08,21,01,13,15.30
2018,08,21,01,14,15.30
2018,08,21,01,15,15.20
2018,08,21,01,16,15.20
2018,08,21,01,17,15.20
2018,08,21,01,18,15.20
2018,08,21,01,19,15.10
2018,08,21,01,20,15.10
2018,08,21,01,21,15.10
2018,08,21,01,22,15.00
2018,08,21,01,23,15.00
2018,08,21,01,24,15.00
2018,08,21,01,25,15.00
2018,08,21,01,26,15.00
2018,08,21,01,27,15.00
2018,08,21,01,28,15.00
2018,08,21,01,29,14.90
2018,08,21,01,30,14.90
2018,08,21,01,31,14.90
2018,08,21,01,32,14.90
2018,08,21,01,33,14.90
2018,08,21,01,34,14.90
2018,08,21,01,35,14.90
2018,08,21,01,36,15.00
2018,08,21,01,37,15.00
2018,08,21,01,38,15.10
2018,08,21,01,39,15.10
2018,08,21,01,40,15.20
2018,08,21,01,41,15.30
2018,08,21,01,42,15.30
2018,08,21,01,43,15.40
2018,08,21,01,44,15.40
2018,08,21,01,45,15.40
2018,08,21,01,46,15.40
2018,08,21,01,47,15.40
2018,08,21,01,48,15.40
2018,08,21,01,49,15.40
2018,08,21,01,50,15.30
2018,08,21,01,51,15.30
2018,08,21,01,52,15.30
2018,08,21,01,53,15.30
2018,08,21,01,54,15.30
2018,08,21,01,55,15.30
2018,08,21,01,56,15.20
2018,08,21,01,57,15.20
2018,08,21,01,58,15.20
2018,08,21,01,59,15.10
2018,08,21,02,00,15.10
2018,08,21,02,01,15.00
2018,08,21,02,02,15.00
2018,08,21,02,03,14.90
2018,08,21,02,04,14.90
2018,08,21,02,05,14.90
2018,08,21,02,06,14.90
2018,08,21,02,07,14.90
2018,08,21,02,08,14.90
2018,08,21,02,09,14.90
2018,08,21,02,10,14.90
2018,08,21,02,11,14.90
2018,08,21,02,12,14.80
2018,08,21,02,13,14.80
2018,08,21,02,14,14.80
2018,08,21,02,15,14.90
2018,08,21,02,16,14.90
2018,08,21,02,17,14.90
2018,08,21,02,18,14.90
2018,08,21,02,19,14.90
2018,08,21,02,20,14.90
2018,08,21,02,21,14.90
2018,08,21,02,22,14.90
2018,08,21,02,23,14.90
2018,08,21,02,24,14.90
2018,08,21,02,25,14.80
2018,08,21,02,26,14.80
2018,08,21,02,27,14.80
2018,08,21,02,28,14.80
2018,08,21,02,29,14.80
2018,08,21,02,30,14.80
2018,08,21,02,31,14.70
2018,08,21,02,32,14.70
2018,08,21,02,33,14.70
2018,08,21,02,34,14.70
2018,08,21,02,35,14.70
2018,08,21,02,36,14.60
2018,08,21,02,37,14.70
2018,08,21,02,38,14.60
2018,08,21,02,39,14.60
2018,08,21,02,40,14.60
2018,08,21,02,41,14.60
2018,08,21,02,42,14.60
2018,08,21,02,43,14.60
2018,08,21,02,44,14.60
2018,08,21,02,45,14.60
2018,08,21,02,46,14.60
2018,08,21,02,47,14.60
2018,08,21,02,48,14.60
2018,08,21,02,49,14.50
2018,08,21,02,50,14.50
2018,08,21,02,51,14.50
2018,08,21,02,52,14.50
2018,08,21,02,53,14.50
2018,08,21,02,54,14.50
2018,08,21,02,55,14.40
2018,08,21,02,56,14.40
2018,08,21,02,57,14.40
2018,08,21,02,58,14.40
2018,08,21,02,59,14.40
2018,08,21,03,00,14.40
2018,08,21,03,01,14.30
2018,08,21,03,02,14.30
2018,08,21,03,03,14.30
2018,08,21,03,04,14.30
2018,08,21,03,05,14.30
2018,08,21,03,06,14.30
2018,08,21,03,07,14.20
2018,08,21,03,08,14.20
2018,08,21,03,09,14.20
2018,08,21,03,10,14.20
2018,08,21,03,11,14.20
2018,08,21,03,12,14.20
2018,08,21,03,13,14.20
2018,08,21,03,14,14.20
2018,08,21,03,15,14.10
2018,08,21,03,16,14.10
2018,08,21,03,17,14.10
2018,08,21,03,18,14.10
2018,08,21,03,19,14.10
2018,08,21,03,20,14.10
2018,08,21,03,21,14.10
2018,08,21,03,22,14.10
2018,08,21,03,23,14.10
2018,08,21,03,24,14.10
2018,08,21,03,25,14.20
2018,08,21,03,26,14.20
2018,08,21,03,27,14.20
2018,08,21,03,28,14.20
2018,08,21,03,29,14.20
2018,08,21,03,30,14.20
2018,08,21,03,31,14.20
2018,08,21,03,32,14.20
2018,08,21,03,33,14.20
2018,08,21,03,34,14.10
2018,08,21,03,35,14.10
2018,08,21,03,36,14.00
2018,08,21,03,37,14.00
2018,08,21,03,38,14.00
2018,08,21,03,39,14.00
2018,08,21,03,40,14.00
2018,08,21,03,41,14.00
2018,08,21,03,42,13.90
2018,08,21,03,43,13.90
2018,08,21,03,44,13.90
2018,08,21,03,45,13.80
2018,08,21,03,46,13.80
2018,08,21,03,47,13.80
2018,08,21,03,48,13.80
2018,08,21,03,49,13.80
2018,08,21,03,50,13.90
2018,08,21,03,51,13.90
2018,08,21,03,52,14.00
2018,08,21,03,53,14.00
2018,08,21,03,54,14.10
2018,08,21,03,55,14.20
2018,08,21,03,56,14.20
2018,08,21,03,57,14.20
2018,08,21,03,58,14.20
2018,08,21,03,59,14.20
2018,08,21,04,00,14.20
2018,08,21,04,01,14.20
2018,08,21,04,02,14.20
2018,08,21,04,03,14.10
2018,08,21,04,04,14.00
2018,08,21,04,05,14.00
2018,08,21,04,06,14.00
2018,08,21,04,07,13.90
2018,08,21,04,08,13.90
2018,08,21,04,09,13.90
2018,08,21,04,10,13.90
2018,08,21,04,11,13.90
2018,08,21,04,12,13.80
2018,08,21,04,13,13.80
2018,08,21,04,14,13.80
2018,08,21,04,15,13.70
2018,08,21,04,16,13.70
2018,08,21,04,17,13.70
2018,08,21,04,18,13.70
2018,08,21,04,19,13.70
2018,08,21,04,20,13.70
2018,08,21,04,21,13.70
2018,08,21,04,22,13.60
2018,08,21,04,23,13.60
2018,08,21,04,24,13.60
2018,08,21,04,25,13.60
2018,08,21,04,26,13.50
2018,08,21,04,27,13.50
2018,08,21,04,28,13.50
2018,08,21,04,29,13.50
2018,08,21,04,30,13.50
2018,08,21,04,31,13.40
2018,08,21,04,32,13.40
2018,08,21,04,33,13.40
2018,08,21,04,34,13.40
2018,08,21,04,35,13.30
2018,08,21,04,36,13.30
2018,08,21,04,37,13.30
2018,08,21,04,38,13.30
2018,08,21,04,39,13.30
2018,08,21,04,40,13.30
2018,08,21,04,41,13.30
2018,08,21,04,42,13.30
2018,08,21,04,43,13.30
2018,08,21,04,44,13.30
2018,08,21,04,45,13.30
2018,08,21,04,46,13.30
2018,08,21,04,47,13.30
2018,08,21,04,48,13.30
2018,08,21,04,49,13.30
2018,08,21,04,50,13.30
2018,08,21,04,51,13.30
2018,08,21,04,52,13.30
2018,08,21,04,53,13.30
2018,08,21,04,54,13.30
2018,08,21,04,55,13.30
2018,08,21,04,56,13.30
2018,08,21,04,57,13.30
2018,08,21,04,58,13.30
2018,08,21,04,59,13.30
2018,08,21,05,00,13.30
2018,08,21,05,01,13.30
2018,08,21,05,02,13.30
2018,08,21,05,03,13.30
2018,08,21,05,04,13.30
2018,08,21,05,05,13.30
2018,08,21,05,06,13.30
2018,08,21,05,07,13.30
2018,08,21,05,08,13.30
2018,08,21,05,09,13.30
2018,08,21,05,10,13.30
2018,08,21,05,11,13.30
2018,08,21,05,12,13.30
2018,08,21,05,13,13.40
2018,08,21,05,14,13.40
2018,08,21,05,15,13.40
2018,08,21,05,16,13.40
2018,08,21,05,17,13.40
2018,08,21,05,18,13.40
2018,08,21,05,19,13.40
2018,08,21,05,20,13.40
2018,08,21,05,21,13.40
2018,08,21,05,22,13.40
2018,08,21,05,23,13.40
2018,08,21,05,24,13.40
2018,08,21,05,25,13.40
2018,08,21,05,26,13.40
2018,08,21,05,27,13.30
2018,08,21,05,28,13.40
2018,08,21,05,29,13.40
2018,08,21,05,30,13.40
2018,08,21,05,31,13.40
2018,08,21,05,32,13.40
2018,08,21,05,33,13.40
2018,08,21,05,34,13.40
2018,08,21,05,35,13.30
2018,08,21,05,36,13.30
2018,08,21,05,37,13.30
2018,08,21,05,38,13.30
2018,08,21,05,39,13.30
2018,08,21,05,40,13.20
2018,08,21,05,41,13.20
2018,08,21,05,42,13.10
2018,08,21,05,43,13.10
2018,08,21,05,44,13.00
2018,08,21,05,45,13.00
2018,08,21,05,46,12.90
2018,08,21,05,47,12.90
2018,08,21,05,48,12.90
2018,08,21,05,49,12.90
2018,08,21,05,50,12.90
2018,08,21,05,51,12.90
2018,08,21,05,52,12.90
2018,08,21,05,53,12.90
2018,08,21,05,54,12.90
2018,08,21,05,55,12.90
2018,08,21,05,56,12.90
2018,08,21,05,57,12.90
2018,08,21,05,58,12.90
2018,08,21,05,59,13.00
2018,08,21,06,00,13.00
2018,08,21,06,01,13.00
2018,08,21,06,02,13.10
2018,08,21,06,03,13.10
2018,08,21,06,04,13.10
2018,08,21,06,05,13.20
2018,08,21,06,06,13.20
2018,08,21,06,07,13.30
2018,08,21,06,08,13.30
2018,08,21,06,09,13.30
2018,08,21,06,10,13.40
2018,08,21,06,11,13.40
2018,08,21,06,12,13.40
2018,08,21,06,13,13.40
2018,08,21,06,14,13.40
2018,08,21,06,15,13.40
2018,08,21,06,16,13.40
2018,08,21,06,17,13.30
2018,08,21,06,18,13.30
2018,08,21,06,19,13.30
2018,08,21,06,20,13.20
2018,08,21,06,21,13.20
2018,08,21,06,22,13.20
2018,08,21,06,23,13.10
2018,08,21,06,24,13.10
2018,08,21,06,25,13.10
2018,08,21,06,26,13.10
2018,08,21,06,27,13.20
2018,08,21,06,28,13.30
2018,08,21,06,29,13.30
2018,08,21,06,30,13.30
2018,08,21,06,31,13.30
2018,08,21,06,32,13.30
2018,08,21,06,33,13.30
2018,08,21,06,34,13.30
2018,08,21,06,35,13.30
2018,08,21,06,36,13.20
2018,08,21,06,37,13.20
2018,08,21,06,38,13.20
2018,08,21,06,39,13.20
2018,08,21,06,40,13.20
2018,08,21,06,41,13.20
2018,08,21,06,42,13.20
2018,08,21,06,43,13.20
2018,08,21,06,44,13.20
2018,08,21,06,45,13.30
2018,08,21,06,46,13.30
2018,08,21,06,47,13.30
2018,08,21,06,48,13.30
2018,08,21,06,49,13.30
2018,08,21,06,50,13.30
2018,08,21,06,51,13.40
2018,08,21,06,52,13.40
2018,08,21,06,53,13.50
2018,08,21,06,54,13.50
2018,08,21,06,55,13.50
2018,08,21,06,56,13.60
2018,08,21,06,57,13.60
2018,08,21,06,58,13.70
2018,08,21,06,59,13.70
2018,08,21,07,00,13.70
2018,08,21,07,01,13.80
2018,08,21,07,02,13.80
2018,08,21,07,03,13.80
2018,08,21,07,04,13.80
2018,08,21,07,05,13.80
2018,08,21,07,06,13.80
2018,08,21,07,07,13.80
2018,08,21,07,08,13.80
2018,08,21,07,09,13.70
2018,08,21,07,10,13.70
2018,08,21,07,11,13.70
2018,08,21,07,12,13.70
2018,08,21,07,13,13.70
2018,08,21,07,14,13.80
2018,08,21,07,15,13.70
2018,08,21,07,16,13.70
2018,08,21,07,17,13.70
2018,08,21,07,18,13.70
2018,08,21,07,19,13.70
2018,08,21,07,20,13.70
2018,08,21,07,21,13.70
2018,08,21,07,22,13.70
2018,08,21,07,23,13.70
2018,08,21,07,24,13.70
2018,08,21,07,25,13.70
2018,08,21,07,26,13.70
2018,08,21,07,27,13.70
2018,08,21,07,28,13.70
2018,08,21,07,29,13.70
2018,08,21,07,30,13.70
2018,08,21,07,31,13.70
2018,08,21,07,32,13.70
2018,08,21,07,33,13.70
2018,08,21,07,34,13.70
2018,08,21,07,35,13.80
2018,08,21,07,36,13.80
2018,08,21,07,37,13.90
2018,08,21,07,38,13.90
2018,08,21,07,39,14.00
2018,08,21,07,40,14.00
2018,08,21,07,41,14.10
2018,08,21,07,42,14.20
2018,08,21,07,43,14.20
2018,08,21,07,44,14.20
2018,08,21,07,45,14.20
2018,08,21,07,46,14.20
2018,08,21,07,47,14.30
2018,08,21,07,48,14.30
2018,08,21,07,49,14.30
2018,08,21,07,50,14.40
2018,08,21,07,51,14.40
2018,08,21,07,52,14.50
2018,08,21,07,53,14.50
2018,08,21,07,54,14.60
2018,08,21,07,55,14.60
2018,08,21,07,56,14.70
2018,08,21,07,57,14.70
2018,08,21,07,58,14.80
2018,08,21,07,59,14.80
2018,08,21,08,00,14.80
2018,08,21,08,01,14.80
2018,08,21,08,02,14.90
2018,08,21,08,03,14.90
2018,08,21,08,04,14.90
2018,08,21,08,05,15.00
2018,08,21,08,06,15.00
2018,08,21,08,07,15.00
2018,08,21,08,08,15.00
2018,08,21,08,09,15.10
2018,08,21,08,10,15.10
2018,08,21,08,11,15.10
2018,08,21,08,12,15.10
2018,08,21,08,13,15.10
2018,08,21,08,14,15.20
2018,08,21,08,15,15.20
2018,08,21,08,16,15.20
2018,08,21,08,17,15.20
2018,08,21,08,18,15.30
2018,08,21,08,19,15.30
2018,08,21,08,20,15.30
2018,08,21,08,21,15.30
2018,08,21,08,22,15.40
2018,08,21,08,23,15.40
2018,08,21,08,24,15.50
2018,08,21,08,25,15.60
2018,08,21,08,26,15.60
2018,08,21,08,27,15.70
2018,08,21,08,28,15.70
2018,08,21,08,29,15.80
2018,08,21,08,30,15.80
2018,08,21,08,31,15.80
2018,08,21,08,32,15.80
2018,08,21,08,33,15.90
2018,08,21,08,34,15.90
2018,08,21,08,35,16.00
2018,08,21,08,36,16.10
2018,08,21,08,37,16.10
2018,08,21,08,38,16.10
2018,08,21,08,39,16.10
2018,08,21,08,40,16.20
2018,08,21,08,41,16.20
2018,08,21,08,42,16.30
2018,08,21,08,43,16.30
2018,08,21,08,44,16.40
2018,08,21,08,45,16.40
2018,08,21,08,46,16.40
2018,08,21,08,47,16.50
2018,08,21,08,48,16.60
2018,08,21,08,49,16.60
2018,08,21,08,50,16.70
2018,08,21,08,51,16.70
2018,08,21,08,52,16.70
2018,08,21,08,53,16.80
2018,08,21,08,54,16.90
2018,08,21,08,55,16.90
2018,08,21,08,56,17.00
2018,08,21,08,57,17.10
2018,08,21,08,58,17.10
2018,08,21,08,59,17.20
2018,08,21,09,00,17.30
2018,08,21,09,01,17.30
2018,08,21,09,02,17.40
2018,08,21,09,03,17.50
2018,08,21,09,04,17.50
2018,08,21,09,05,17.60
2018,08,21,09,06,17.70
2018,08,21,09,07,17.70
2018,08,21,09,08,17.80
2018,08,21,09,09,17.80
2018,08,21,09,10,17.90
2018,08,21,09,11,17.90
2018,08,21,09,12,17.90
2018,08,21,09,13,17.90
2018,08,21,09,14,18.00
2018,08,21,09,15,18.10
2018,08,21,09,16,18.10
2018,08,21,09,17,18.20
2018,08,21,09,18,18.20
2018,08,21,09,19,18.30
2018,08,21,09,20,18.40
2018,08,21,09,21,18.50
2018,08,21,09,22,18.50
2018,08,21,09,23,18.60
2018,08,21,09,24,18.70
2018,08,21,09,25,18.70
2018,08,21,09,26,18.80
2018,08,21,09,27,18.90
2018,08,21,09,28,18.90
2018,08,21,09,29,18.90
2018,08,21,09,30,19.00
2018,08,21,09,31,19.10
2018,08,21,09,32,19.10
2018,08,21,09,33,19.10
2018,08,21,09,34,19.10
2018,08,21,09,35,19.20
2018,08,21,09,36,19.20
2018,08,21,09,37,19.30
2018,08,21,09,38,19.30
2018,08,21,09,39,19.40
2018,08,21,09,40,19.50
2018,08,21,09,41,19.50
2018,08,21,09,42,19.60
2018,08,21,09,43,19.60
2018,08,21,09,44,19.70
2018,08,21,09,45,19.70
2018,08,21,09,46,19.80
2018,08,21,09,47,19.80
2018,08,21,09,48,19.90
2018,08,21,09,49,19.90
2018,08,21,09,50,20.00
2018,08,21,09,51,20.10
2018,08,21,09,52,20.20
2018,08,21,09,53,20.20
2018,08,21,09,54,20.30
2018,08,21,09,55,20.40
2018,08,21,09,56,20.50
2018,08,21,09,57,20.50
2018,08,21,09,58,20.70
2018,08,21,09,59,20.80
2018,08,21,10,00,20.90
2018,08,21,10,01,21.00
2018,08,21,10,02,21.10
2018,08,21,10,03,21.30
2018,08,21,10,04,21.30
2018,08,21,10,05,21.40
2018,08,21,10,06,21.50
2018,08,21,10,07,21.60
2018,08,21,10,08,21.70
2018,08,21,10,09,21.90
2018,08,21,10,10,22.00
2018,08,21,10,11,22.10
2018,08,21,10,12,22.10
2018,08,21,10,13,22.10
2018,08,21,10,14,22.10
2018,08,21,10,15,22.10
2018,08,21,10,16,22.20
2018,08,21,10,17,22.20
2018,08,21,10,18,22.20
2018,08,21,10,19,22.20
2018,08,21,10,20,22.20
2018,08,21,10,21,22.30
2018,08,21,10,22,22.30
2018,08,21,10,23,22.40
2018,08,21,10,24,22.40
2018,08,21,10,25,22.30
2018,08,21,10,26,22.30
2018,08,21,10,27,22.30
2018,08,21,10,28,22.30
2018,08,21,10,29,22.30
2018,08,21,10,30,22.30
2018,08,21,10,31,22.30
2018,08,21,10,32,22.20
2018,08,21,10,33,22.20
2018,08,21,10,34,22.30
2018,08,21,10,35,22.30
2018,08,21,10,36,22.30
2018,08,21,10,37,22.30
2018,08,21,10,38,22.30
2018,08,21,10,39,22.20
2018,08,21,10,40,22.10
2018,08,21,10,41,22.00
2018,08,21,10,42,21.90
2018,08,21,10,43,21.80
2018,08,21,10,44,21.80
2018,08,21,10,45,21.70
2018,08,21,10,46,21.70
2018,08,21,10,47,21.80
2018,08,21,10,48,21.90
2018,08,21,10,49,21.90
2018,08,21,10,50,21.90
2018,08,21,10,51,22.00
2018,08,21,10,52,22.00
2018,08,21,10,53,22.10
2018,08,21,10,54,22.10
2018,08,21,10,55,22.10
2018,08,21,10,56,22.20
2018,08,21,10,57,22.20
2018,08,21,10,58,22.30
2018,08,21,10,59,22.40
2018,08,21,11,00,22.50
2018,08,21,11,01,22.50
2018,08,21,11,02,22.60
2018,08,21,11,03,22.60
2018,08,21,11,04,22.70
2018,08,21,11,05,22.80
2018,08,21,11,06,22.80
2018,08,21,11,07,22.80
2018,08,21,11,08,22.90
2018,08,21,11,09,22.90
2018,08,21,11,10,22.90
2018,08,21,11,11,22.90
2018,08,21,11,12,22.90
2018,08,21,11,13,22.90
2018,08,21,11,14,22.90
2018,08,21,11,15,23.00
2018,08,21,11,16,23.10
2018,08,21,11,17,23.10
2018,08,21,11,18,23.20
2018,08,21,11,19,23.30
2018,08,21,11,20,23.40
2018,08,21,11,21,23.50
2018,08,21,11,22,23.70
2018,08,21,11,23,23.70
2018,08,21,11,24,23.70
2018,08,21,11,25,23.80
2018,08,21,11,26,23.90
2018,08,21,11,27,23.90
2018,08,21,11,28,23.90
2018,08,21,11,29,24.10
2018,08,21,11,30,24.10
2018,08,21,11,31,24.10
2018,08,21,11,32,24.10
2018,08,21,11,33,24.10
2018,08,21,11,34,24.20
2018,08,21,11,35,24.30
2018,08,21,11,36,24.30
2018,08,21,11,37,24.40
2018,08,21,11,38,24.40
2018,08,21,11,39,24.40
2018,08,21,11,40,24.40
2018,08,21,11,41,24.40
2018,08,21,11,42,24.40
2018,08,21,11,43,24.40
2018,08,21,11,44,24.40
2018,08,21,11,45,24.40
2018,08,21,11,46,24.40
2018,08,21,11,47,24.40
2018,08,21,11,48,24.40
2018,08,21,11,49,24.40
2018,08,21,11,50,24.40
2018,08,21,11,51,24.30
2018,08,21,11,52,24.20
2018,08,21,11,53,24.20
2018,08,21,11,54,24.20
2018,08,21,11,55,24.10
2018,08,21,11,56,24.10
2018,08,21,11,57,24.10
2018,08,21,11,58,24.10
2018,08,21,11,59,24.10
2018,08,21,12,00,24.10
2018,08,21,12,01,24.10
2018,08,21,12,02,24.10
2018,08,21,12,03,24.20
2018,08,21,12,04,24.30
2018,08,21,12,05,24.30
2018,08,21,12,06,24.40
2018,08,21,12,07,24.40
2018,08,21,12,08,24.30
2018,08,21,12,09,24.30
2018,08,21,12,10,24.20
2018,08,21,12,11,24.10
2018,08,21,12,12,24.10
2018,08,21,12,13,24.00
2018,08,21,12,14,23.90
2018,08,21,12,15,23.80
2018,08,21,12,16,23.70
2018,08,21,12,17,23.70
2018,08,21,12,18,23.70
2018,08,21,12,19,23.70
2018,08,21,12,20,23.70
2018,08,21,12,21,23.80
2018,08,21,12,22,23.70
2018,08,21,12,23,23.70
2018,08,21,12,24,23.70
2018,08,21,12,25,23.70
2018,08,21,12,26,23.70
2018,08,21,12,27,23.70
2018,08,21,12,28,23.70
2018,08,21,12,29,23.70
2018,08,21,12,30,23.70
2018,08,21,12,31,23.70
2018,08,21,12,32,23.70
2018,08,21,12,33,23.70
2018,08,21,12,34,23.80
2018,08,21,12,35,23.80
2018,08,21,12,36,23.90
2018,08,21,12,37,23.90
2018,08,21,12,38,23.90
2018,08,21,12,39,23.90
2018,08,21,12,40,23.90
2018,08,21,12,41,24.10
2018,08,21,12,42,24.10
2018,08,21,12,43,24.10
2018,08,21,12,44,24.10
2018,08,21,12,45,24.10
2018,08,21,12,46,24.10
2018,08,21,12,47,24.10
2018,08,21,12,48,24.10
2018,08,21,12,49,24.20
2018,08,21,12,50,24.20
2018,08,21,12,51,24.30
2018,08,21,12,52,24.40
2018,08,21,12,53,24.50
2018,08,21,12,54,24.60
2018,08,21,12,55,24.70
2018,08,21,12,56,24.90
2018,08,21,12,57,25.00
2018,08,21,12,58,25.20
2018,08,21,12,59,25.20
2018,08,21,13,00,25.30
2018,08,21,13,01,25.30
2018,08,21,13,02,25.30
2018,08,21,13,03,25.30
2018,08,21,13,04,25.30
2018,08,21,13,05,25.40
2018,08,21,13,06,25.40
2018,08,21,13,07,25.40
2018,08,21,13,08,25.40
2018,08,21,13,09,25.50
2018,08,21,13,10,25.50
2018,08,21,13,11,25.60
2018,08,21,13,12,25.70
2018,08,21,13,13,25.80
2018,08,21,13,14,25.90
2018,08,21,13,15,26.00
2018,08,21,13,16,26.10
2018,08,21,13,17,26.20
2018,08,21,13,18,26.20
2018,08,21,13,19,26.20
2018,08,21,13,20,26.20
2018,08,21,13,21,26.20
2018,08,21,13,22,26.10
2018,08,21,13,23,26.10
2018,08,21,13,24,26.10
2018,08,21,13,25,26.10
2018,08,21,13,26,26.20
2018,08,21,13,27,26.20
2018,08,21,13,28,26.30
2018,08,21,13,29,26.40
2018,08,21,13,30,26.50
2018,08,21,13,31,26.70
2018,08,21,13,32,26.70
2018,08,21,13,33,26.70
2018,08,21,13,34,26.60
2018,08,21,13,35,26.60
2018,08,21,13,36,26.60
2018,08,21,13,37,26.60
2018,08,21,13,38,26.60
2018,08,21,13,39,26.60
2018,08,21,13,40,26.50
2018,08,21,13,41,26.40
2018,08,21,13,42,26.30
2018,08,21,13,43,26.20
2018,08,21,13,44,26.20
2018,08,21,13,45,26.20
2018,08,21,13,46,26.20
2018,08,21,13,47,26.20
2018,08,21,13,48,26.20
2018,08,21,13,49,26.30
2018,08,21,13,50,26.30
2018,08,21,13,51,26.30
2018,08,21,13,52,26.30
2018,08,21,13,53,26.30
2018,08,21,13,54,26.30
2018,08,21,13,55,26.30
2018,08,21,13,56,26.30
2018,08,21,13,57,26.30
2018,08,21,13,58,26.30
2018,08,21,13,59,26.30
2018,08,21,14,00,26.20
2018,08,21,14,01,26.20
2018,08,21,14,02,26.10
2018,08,21,14,03,26.00
2018,08,21,14,04,26.00
2018,08,21,14,05,26.00
2018,08,21,14,06,26.00
2018,08,21,14,07,26.00
2018,08,21,14,08,25.90
2018,08,21,14,09,25.90
2018,08,21,14,10,25.90
2018,08,21,14,11,25.80
2018,08,21,14,12,25.80
2018,08,21,14,13,25.80
2018,08,21,14,14,25.80
2018,08,21,14,15,25.80
2018,08,21,14,16,25.90
2018,08,21,14,17,25.90
2018,08,21,14,18,25.90
2018,08,21,14,19,25.90
2018,08,21,14,20,25.90
2018,08,21,14,21,25.90
2018,08,21,14,22,25.90
2018,08,21,14,23,25.90
2018,08,21,14,24,26.00
2018,08,21,14,25,26.00
2018,08,21,14,26,26.00
2018,08,21,14,27,26.00
2018,08,21,14,28,26.00
2018,08,21,14,29,25.90
2018,08,21,14,30,25.90
2018,08,21,14,31,25.90
2018,08,21,14,32,25.90
2018,08,21,14,33,25.80
2018,08,21,14,34,25.80
2018,08,21,14,35,25.80
2018,08,21,14,36,25.90
2018,08,21,14,37,25.90
2018,08,21,14,38,26.10
2018,08,21,14,39,26.30
2018,08,21,14,40,26.30
2018,08,21,14,41,26.30
2018,08,21,14,42,26.40
2018,08,21,14,43,26.40
2018,08,21,14,44,26.60
2018,08,21,14,45,26.70
2018,08,21,14,46,26.80
2018,08,21,14,47,26.90
2018,08,21,14,48,27.00
2018,08,21,14,49,27.10
2018,08,21,14,50,27.20
2018,08,21,14,51,27.20
2018,08,21,14,52,27.30
2018,08,21,14,53,27.30
2018,08,21,14,54,27.30
2018,08,21,14,55,27.30
2018,08,21,14,56,27.40
2018,08,21,14,57,27.40
2018,08,21,14,58,27.40
2018,08,21,14,59,27.40
2018,08,21,15,00,27.50
2018,08,21,15,01,27.60
2018,08,21,15,02,27.60
2018,08,21,15,03,27.60
2018,08,21,15,04,27.60
2018,08,21,15,05,27.60
2018,08,21,15,06,27.60
2018,08,21,15,07,27.70
2018,08,21,15,08,27.70
2018,08,21,15,09,27.70
2018,08,21,15,10,27.60
2018,08,21,15,11,27.60
2018,08,21,15,12,27.60
2018,08,21,15,13,27.60
2018,08,21,15,14,27.60
2018,08,21,15,15,27.60
2018,08,21,15,16,27.50
2018,08,21,15,17,27.40
2018,08,21,15,18,27.40
2018,08,21,15,19,27.40
2018,08,21,15,20,27.30
2018,08,21,15,21,27.30
2018,08,21,15,22,27.30
2018,08,21,15,23,27.30
2018,08,21,15,24,27.20
2018,08,21,15,25,27.20
2018,08,21,15,26,27.20
2018,08,21,15,27,27.10
2018,08,21,15,28,27.10
2018,08,21,15,29,27.00
2018,08,21,15,30,26.90
2018,08,21,15,31,26.80
2018,08,21,15,32,26.80
2018,08,21,15,33,26.70
2018,08,21,15,34,26.70
2018,08,21,15,35,26.60
2018,08,21,15,36,26.40
2018,08,21,15,37,26.20
2018,08,21,15,38,26.00
2018,08,21,15,39,25.90
2018,08,21,15,40,25.70
2018,08,21,15,41,25.60
2018,08,21,15,42,25.50
2018,08,21,15,43,25.50
2018,08,21,15,44,25.50
2018,08,21,15,45,25.50
2018,08,21,15,46,25.40
2018,08,21,15,47,25.40
2018,08,21,15,48,25.40
2018,08,21,15,49,25.40
2018,08,21,15,50,25.30
2018,08,21,15,51,25.30
2018,08,21,15,52,25.30
2018,08,21,15,53,25.30
2018,08,21,15,54,25.30
2018,08,21,15,55,25.30
2018,08,21,15,56,25.30
2018,08,21,15,57,25.40
2018,08,21,15,58,25.50
2018,08,21,15,59,25.60
2018,08,21,16,00,25.70
2018,08,21,16,01,25.80
2018,08,21,16,02,26.00
2018,08,21,16,03,26.10
2018,08,21,16,04,26.20
2018,08,21,16,05,26.30
2018,08,21,16,06,26.40
2018,08,21,16,07,26.50
2018,08,21,16,08,26.60
2018,08,21,16,09,26.70
2018,08,21,16,10,26.70
2018,08,21,16,11,26.80
2018,08,21,16,12,26.90
2018,08,21,16,13,26.90
2018,08,21,16,14,26.90
2018,08,21,16,15,26.90
2018,08,21,16,16,26.80
2018,08,21,16,17,26.70
2018,08,21,16,18,26.60
2018,08,21,16,19,26.50
2018,08,21,16,20,26.40
2018,08,21,16,21,26.30
2018,08,21,16,22,26.20
2018,08,21,16,23,26.10
2018,08,21,16,24,26.10
2018,08,21,16,25,26.00
2018,08,21,16,26,25.90
2018,08,21,16,27,25.90
2018,08,21,16,28,25.70
2018,08,21,16,29,25.60
2018,08,21,16,30,25.40
2018,08,21,16,31,25.40
2018,08,21,16,32,25.30
2018,08,21,16,33,25.20
2018,08,21,16,34,25.20
2018,08,21,16,35,25.10
2018,08,21,16,36,25.10
2018,08,21,16,37,25.00
2018,08,21,16,38,25.00
2018,08,21,16,39,25.00
2018,08,21,16,40,25.10
2018,08,21,16,41,25.10
2018,08,21,16,42,25.10
2018,08,21,16,43,25.10
2018,08,21,16,44,25.10
2018,08,21,16,45,25.10
2018,08,21,16,46,25.10
2018,08,21,16,47,25.10
2018,08,21,16,48,25.10
2018,08,21,16,49,25.10
2018,08,21,16,50,25.10
2018,08,21,16,51,25.10
2018,08,21,16,52,25.10
2018,08,21,16,53,25.10
2018,08,21,16,54,25.10
2018,08,21,16,55,25.10
2018,08,21,16,56,25.20
2018,08,21,16,57,25.20
2018,08,21,16,58,25.20
2018,08,21,16,59,25.10
2018,08,21,17,00,25.10
2018,08,21,17,01,25.10
2018,08,21,17,02,25.00
2018,08,21,17,03,24.90
2018,08,21,17,04,24.80
2018,08,21,17,05,24.70
2018,08,21,17,06,24.50
2018,08,21,17,07,24.40
2018,08,21,17,08,24.30
2018,08,21,17,09,24.30
2018,08,21,17,10,24.10
2018,08,21,17,11,24.00
2018,08,21,17,12,23.90
2018,08,21,17,13,23.80
2018,08,21,17,14,23.80
2018,08,21,17,15,23.70
2018,08,21,17,16,23.70
2018,08,21,17,17,23.70
2018,08,21,17,18,23.70
2018,08,21,17,19,23.80